651  
ASUS43 KFSD 241610  
RWRFSD  
 
WEATHER ROUNDUP FOR SE SOUTH DAKOTA/SW MINNESOTA/NW IOWA  
NATIONAL WEATHER SERVICE SIOUX FALLS SD  
1100 AM CDT SUN OCT 24 2021  
 
NOTE: "FAIR" INDICATES FEW OR NO CLOUDS BELOW 12,000 FEET WITH NO  
SIGNIFICANT WEATHER AND OR S TO VISIBILITY
.  
 
 
SDZ038>040-050-052>070-241700-  
SOUTHEAST SOUTH DAKOTA  
 
CITY SKY/WX TMP DP RH WIND PRES REMARKS
 
BROOKINGS CLOUDY 43 33 68 E10 29.87R  
CHAMBERLAIN DRIZZLE 40 40 100 E7 29.83R  
HURON RAIN 42 37 82 E17 29.85S  
MITCHELL RAIN 43 40 89 CALM 29.85R FOG  
SIOUX FALLS CLOUDY 46 33 60 E15G30 29.82S  
WINNER CLOUDY 46 39 76 E5 29.81R  
YANKTON CLOUDY 43 40 89 NE10 29.80R  

 
 
MNZ071-072-080-081-089-090-097-098-241700-  
SOUTHWEST MINNESOTA  
 
CITY SKY/WX TMP DP RH WIND PRES REMARKS
 
FAIRMONT CLOUDY 43 35 73 E14 29.90F  
JACKSON CLOUDY 41 34 75 E12 29.89R  
MARSHALL CLOUDY 43 34 70 E13 29.92R  
MONTEVIDEO CLOUDY 43 32 65 SE16 29.94S  
PIPESTONE CLOUDY 45 34 65 E16G23 29.84S  
REDWOOD FALLS CLOUDY 43 34 70 E10G23 29.93R  
TRACY CLOUDY 42 32 69 E12 29.91R  
WINDOM CLOUDY 41 34 75 E14G20 29.88S  
WORTHINGTON LGT RAIN 42 34 73 E21G26 29.84F  

 
 
IAZ001>003-012>014-020>022-031-032-NEZ013-014-SDZ071-241700-  
NORTHWEST IOWA  
 
CITY SKY/WX TMP DP RH WIND PRES REMARKS
 
CHEROKEE DRIZZLE 41 41 99 NE16G26 29.76F  
DENISON CLOUDY 45 45 100 E10G18 29.72S  
ESTHERVILLE CLOUDY 43 36 76 E14 29.87F  
LE MARS CLOUDY 43 41 93 E9G23 29.74S  
MAURICE CLOUDY 41 41 100 E17G24 29.77R  
SHELDON MIX PCPN 41 39 93 E22G33 29.77F  
SIOUX CITY LGT RAIN 44 40 85 E12 29.77R  
SPENCER LGT RAIN 42 36 79 E21G29 29.82F  

 
 
ABBREVIATIONS USED IN REMARKS  
TC - TEMPERATURE IN CELSIUS  
WCI - WIND CHILL INDEX  
HX - HEAT INDEX  
VSB - VISIBILITY  
 
 
 
CLICK HERE TO GO TO PREVIOUS BULLETINS.

The Nexlab SD Page
The Nexlab IA Page
The Nexlab MN Page
The Nexlab NE Page Main Text Page